Regional Weather Roundup
Issued by NWS

Home | Current Version | Previous Version | Graphics & Text | Print | Product List | Glossary Off
Versions: 1 2 3 4 5 6 7 8 9 10 11 12 13 14 15 16 17 18 19 20 21 22 23 24 25 26 27 28 29 30 31 32 33 34 35 36 37 38 39 40 41 42 43 44 45 46 47 48 49 50

000
ASUS43 KLSX 091607
RWRMO

WEATHER SUMMARY FOR MISSOURI
NATIONAL WEATHER SERVICE SPRINGFIELD MO
1000 AM CST FRI DEC 09 2016

NOTE: "FAIR" INDICATES FEW OR NO CLOUDS BELOW 12,000 FEET WITH NO
       SIGNIFICANT WEATHER AND/OR OBSTRUCTIONS TO VISIBILITY.
       CURRENT SKY AND/OR WEATHER CONDITIONS ARE NOT AVAILABLE FOR
       CHILLICOTHE AND FARMINGTON.

MOZ001>031-035>038-043-044-053-054-091700-
...NORTHERN AND WESTERN MISSOURI...

CITY           SKY/WX    TMP DP  RH WIND       PRES   REMARKS
KANSAS CTY INT CLOUDY    18  10  71 CALM      30.66R
KANSAS C DTWN  MOSUNNY   21  11  65 E3        30.68R
LEE`S SUMMIT   MOSUNNY   19  11  70 CALM      30.67R
ST JOSEPH      MOSUNNY   17  12  80 S3        30.68R
CHILLICOTHE      N/A     19  10  68 N3        30.68R
KIRKSVILLE     SUNNY     17  11  77 N7        30.64R WCI   8

$$
MOZ066>068-077>081-088>096-101>105-091700-
...SOUTHWEST MISSOURI...

CITY           SKY/WX    TMP DP  RH WIND       PRES   REMARKS
SPRINGFIELD    SUNNY     23  12  62 CALM      30.64R
JOPLIN         SUNNY     23  15  71 E7        30.67R WCI  15
BRANSON        MOSUNNY   23  10  58 CALM      30.65R

$$
MOZ032>034-039>042-045>050-055>058-069>072-091700-
...CENTRAL MISSOURI...

CITY           SKY/WX    TMP DP  RH WIND       PRES   REMARKS
COLUMBIA       SUNNY     21  12  68 CALM      30.65R
JEFFERSON CITY SUNNY     20  13  74 W5        30.68R WCI  13
ROLLA          SUNNY     19  12  74 W3        30.61R
SEDALIA        MOSUNNY   19  10  68 CALM      30.68R
WHITEMAN AFB   PTSUNNY   18  12  76 CALM      30.67R
WARRENSBURG    CLOUDY    19  12  73 CALM      30.69R
OSAGE BEACH    SUNNY     27  14  58 SW5       30.67R WCI  22

$$
MOZ051-052-059>065-091700-
...EAST CENTRAL MISSOURI...

CITY           SKY/WX    TMP DP  RH WIND       PRES   REMARKS
ST LOUIS INTL  MOSUNNY   25  13  60 NW7       30.64S WCI  17
SPIRIT OF STL  SUNNY     23  14  68 N6        30.66R WCI  16
ST CHARLES     SUNNY     22  14  71 W5        30.65R WCI  16

$$
MOZ072>076-082>087-097>100-106>115-091700-
...SOUTH CENTRAL AND SOUTHEAST MISSOURI...

CITY           SKY/WX    TMP DP  RH WIND       PRES   REMARKS
CAPE GIRARDEAU SUNNY     25  14  63 W3        30.68R
FARMINGTON     SUNNY     23  13  65 VRB3      30.64R
POPLAR BLUFF   SUNNY     27  14  58 N3        30.69R
WEST PLAINS    SUNNY     24  13  62 N3        30.65R

$$



USA.gov is the U.S. government's official web portal to all federal, state and local government web resources and services.